Location: Palmerston North
(40.3500°S, 175.6170°E)
Time: 05:40:48
(UTC+12:00)

ISS - Visible Passes

Search period start: 15 August 2020 00:00
Search period end: 25 August 2020 00:00
Orbit: 418 x 420 km, 51.6° (Epoch: 15 August)

Date Brightness Start Highest point End Pass type
(mag) Time Alt. Az. Time Alt. Az. Time Alt. Az.
17 Aug -0.6 20:02:49 10° NW 20:02:51 10° NW 20:02:51 10° NW visible
18 Aug -2.5 19:15:33 10° NNW 19:17:52 30° NNE 19:17:52 30° NNE visible
19 Aug -2.1 18:28:37 10° N 18:31:11 20° NE 18:32:49 15° E visible
19 Aug -1.2 20:04:26 10° WNW 20:05:48 21° W 20:05:48 21° W visible
20 Aug -3.7 19:16:41 10° WNW 19:20:05 79° SW 19:20:36 61° SSE visible
21 Aug -3.6 18:29:07 10° NW 18:32:29 60° NE 18:35:18 14° ESE visible
21 Aug -1.1 20:06:41 10° WSW 20:08:17 19° SW 20:08:17 19° SW visible
22 Aug -2.2 19:18:36 10° W 19:21:44 32° SSW 19:22:52 25° S visible
23 Aug -2.9 18:30:39 10° WNW 18:33:59 48° SSW 18:37:20 10° SE visible
23 Aug -0.8 20:09:17 10° SW 20:10:20 14° SW 20:10:20 14° SW visible
24 Aug -1.5 19:21:01 10° WSW 19:23:31 18° SSW 19:24:45 16° S visible
